Home   Weather   Venice   Past weeks
Flag for USA

Past Weather in Venice, California, USA — Yesterday and Last 2 Weeks

Now
63 °F

Overcast.


Feels Like: 63 °F
Forecast: 69 / 64 °F
Wind: 5 mph from West

Location: Santa Monica Municipal Airport

Current Time: Jun 25, 2019 at 9:05:10 pm

Latest Report: Jun 25, 2019 at 7:51 pm


Visibility: 10 mi

Pressure: 29.90 "Hg

Humidity: 81%

Dew Point: 57 °F

Location of VeniceLocation

Past Weather in Venice — Graph

°F

Venice Temperature Yesterday

Maximum temperature yesterday: 67 °F (at 2:51 pm)
Minimum temperature yesterday: 61 °F (at 1:51 am)
Average temperature yesterday: 64 °F

High & Low Weather Summary for the Past Weeks

 TemperatureHumidityPressure
High74 °F (Jun 11, 11:51 am)97% (Jun 24, 1:51 am)30.01 "Hg (Jun 24, 1:51 am)
Low60 °F (Jun 23, 2:51 am)61% (Jun 19, 11:51 am)29.85 "Hg (Jun 16, 4:51 pm)
Average65 °F82%29.93 "Hg
* Reported Jun 10 7:51 pm — Jun 25 7:51 pm, Venice. Weather by CustomWeather, © 2019

Note: Actual official high and low records may vary slightly from our data, if they occured in-between our weather recording intervals... More about our weather records

Advertising

Venice Weather History for the Previous 24 Hours

Scroll right to see more
 ConditionsComfort  
Time TempWeatherWind HumidityBarometerVisibility
7:51 pm
Tue, Jun 25
63 °FOvercast.5 mph81%29.90 "Hg10 mi
7:20 pm63 °FOvercast.7 mph81%29.90 "Hg10 mi
5:51 pm63 °FLow clouds.7 mph81%29.89 "Hg10 mi
4:51 pm63 °FLow clouds.9 mph81%29.90 "Hg10 mi
3:51 pm64 °FLow clouds.8 mph81%29.91 "Hg10 mi
2:51 pm63 °FLow clouds.8 mph84%29.93 "Hg10 mi
2:25 pm65 °FMostly cloudy.10 mph81%29.93 "Hg10 mi
1:51 pm66 °FMostly cloudy.9 mph75%29.93 "Hg10 mi
12:51 pm66 °FMore clouds than sun.8 mph78%29.93 "Hg9 mi
11:42 am65 °FMild.N/A81%29.93 "HgN/A
11:24 am64 °FMore clouds than sun.5 mph84%29.94 "Hg10 mi
10:51 am65 °FOvercast.7 mph81%29.93 "Hg10 mi
9:51 am65 °FOvercast.7 mph78%29.91 "Hg10 mi
8:51 am64 °FOvercast.5 mph81%29.90 "Hg10 mi
7:51 am64 °FOvercast.3 mph84%29.88 "Hg10 mi
6:51 am64 °FOvercast.No wind84%29.86 "Hg10 mi
5:51 am63 °FOvercast.3 mph87%29.86 "Hg10 mi
4:51 am63 °FOvercast.3 mph87%29.86 "Hg10 mi
4:21 am64 °FOvercast.5 mph84%29.86 "Hg10 mi
3:51 am63 °FOvercast.3 mph87%29.86 "Hg10 mi
2:51 am63 °FOvercast.No wind84%29.86 "Hg9 mi
1:51 am63 °FOvercast.No wind84%29.87 "Hg9 mi
12:51 am64 °FOvercast.6 mph81%29.88 "Hg10 mi
11:51 pm
Mon, Jun 24
64 °FOvercast.No wind81%29.88 "Hg10 mi
10:51 pm64 °FOvercast.No wind84%29.88 "Hg10 mi
9:51 pm64 °FOvercast.3 mph84%29.88 "Hg10 mi
9:43 pm63 °FOvercast.5 mph87%29.89 "Hg10 mi
Weather by CustomWeather, © 2019

See weather overview